Powrót do katalogu

MONITOR-4

AktywnyKrótkofalarstwoSSO
NORAD 57182·PAYLOAD·🇷🇺 Russia
Ta nazwa satelity nie została jeszcze potwierdzona przez oficjalne źródła.

Wystrzelony Jun 27, 2023 z Vostochny Cosmodrome

Loading…

Następne Przeloty (najbliższe 24 godziny)

TLE

ŚwieżeSource: Space-Track

Epoka: Sep 14, 2026, 11:01 UTC

1 57182U 23091S   26257.45920958  .00008394  00000-0  29581-3 0  9994
2 57182  97.4985 321.5942 0012221 139.4636 220.7516 15.29472383177937

Śledź MONITOR-4 w czasie rzeczywistym z AllMySat

Download on the App Store